SCP
0 0 0 0 1 2 1 2 2 3 3 2 2 1 1 1 0 0 0 0 -0 -0 -0 -0 -0 0 0 0 0 0 0 0
0 0 0 0 0 1 1 2 2 2 3 3 2 2 1 1 0 0 0 0 0 -0 -0 -0 0 0 0 0 0 0 0 0
0 0 0 0 0 0 1 1 1 1 2 3 2 2 1 1 0 0 0 0 0 0 0 0 0 0 0 0 0 0 0 0
0 0 0 0 0 0 1 1 1 1 2 2 2 2 1 1 1 0 0 0 0 0 0 0 0 0 0 0 0 0 0 0
0 0 0 0 0 0 1 1 1 1 2 1 1 1 1 1 1 0 0 0 0 0 0 0 0 0 0 0 0 0 0 0
0 0 0 0 0 1 1 2 1 2 2 1 1 1 1 1 1 1 1 0 0 0 0 0 0 0 0 0 0 0 0 0
0 0 0 0 0 0 0 3 3 2 2 3 3 1 1 1 1 1 1 1 1 0 0 0 0 0 0 0 0 0 0 0
0 0 0 0 0 0 2 4 5 4 4 4 3 4 3 2 1 1 1 1 1 1 1 1 1 1 1 0 0 0 0 0
0 0 0 0 0 0 1 2 3 6 5 4 3 3 4 3 2 2 2 2 2 1 1 2 1 1 1 0 0 0 0 0
0 0 0 0 0 0 0 1 3 3 5 4 3 2 3 4 3 2 3 3 2 1 1 1 2 2 1 0 0 0 0 0
0 0 0 0 0 0 0 0 1 2 3 3 2 3 2 2 2 2 2 5 4 1 2 2 1 2 1 1 0 0 0 0
0 0 0 0 0 0 0 0 0 0 0 2 2 2 3 2 1 1 2 2 2 1 1 3 2 2 2 1 0 0 0 1
0 0 0 0 0 0 0 0 0 0 0 0 1 2 1 1 1 2 1 1 2 2 3 2 2 2 1 1 1 1 1 1
0 0 0 0 0 0 0 0 0 0 0 0 0 0 1 1 1 0 1 2 1 2 3 3 4 3 1 1 1 1 0 1
0 0 0 0 0 0 0 0 0 0 0 0 0 0 0 0 0 0 -0 0 1 1 1 3 4 4 2 1 1 1 1 1
0 0 0 0 0 0 0 0 0 0 0 0 0 0 0 0 0 0 0 1 1 1 0 1 1 3 3 2 2 1 0 0
0 0 0 0 0 0 0 0 0 0 0 0 0 0 0 0 0 0 0 0 0 1 0 0 0 0 0 0 0 0 0 0
0 0 0 0 0 0 0 0 0 0 0 0 0 0 0 0 0 0 0 0 0 0 0 0 1 1 0 0 0 0 0 0
0 0 0 0 0 0 0 0 0 0 0 0 0 0 0 0 0 0 0 0 0 0 0 0 0 0 1 1 1 0 0 0
0 0 0 0 0 0 0 0 0 0 0 0 0 0 0 0 0 0 0 0 0 0 0 0 0 0 0 0 1 0 0 0
Wind_Speed_500mb
28 26 22 24 24 56 55 65 74 78 83 81 77 74 70 65 61 58 52 48 44 40 36 30 24 20 18 19 24 26 25 28
24 22 22 24 24 52 52 54 68 75 80 83 80 78 73 68 63 59 57 53 48 43 38 32 26 23 20 17 14 14 15 17
17 6 13 24 27 29 47 52 60 75 77 78 77 74 72 69 65 62 59 55 51 46 42 37 29 27 23 16 13 11 14 17
27 32 27 23 27 30 30 45 56 69 76 76 78 73 69 66 65 63 62 59 55 52 48 42 34 28 23 21 19 20 23 25
35 32 26 35 34 32 41 41 63 56 64 72 70 71 65 61 63 63 63 61 59 56 52 46 38 32 28 30 27 28 33 36
46 43 38 33 46 42 33 51 63 58 58 62 62 60 59 53 52 60 62 62 58 56 54 50 43 39 35 36 37 38 43 46
55 50 39 42 44 48 42 48 62 59 60 60 58 51 57 59 52 46 47 49 52 51 53 48 46 43 43 42 41 47 49 48
54 56 51 41 53 52 46 55 59 62 71 68 59 54 53 58 64 64 51 43 41 41 42 39 39 38 45 49 47 47 49 48
41 40 43 49 60 61 55 57 64 72 75 80 74 64 50 51 62 63 55 52 49 38 44 40 41 45 43 52 51 55 55 51
39 37 43 55 65 60 53 43 47 60 79 78 72 75 69 71 56 55 53 51 44 47 54 49 44 50 43 56 55 55 54 53
50 57 57 61 64 62 55 42 33 39 54 73 70 69 68 65 73 71 67 85 71 59 61 57 60 61 58 54 56 55 58 55
56 67 68 67 60 57 52 46 43 34 52 56 63 66 65 63 63 78 76 71 79 64 57 56 47 63 56 54 54 63 61 54
73 85 79 74 69 66 56 44 39 42 40 43 54 59 61 68 63 60 51 58 54 70 78 70 72 64 52 50 60 61 59 48
74 80 85 69 56 45 39 32 29 34 31 37 42 42 57 69 74 66 57 56 50 60 75 80 83 66 76 56 46 46 45 46
73 68 76 67 58 46 37 35 36 36 26 19 21 28 33 36 42 46 51 60 66 70 80 70 82 79 73 71 66 63 62 72
69 77 76 65 57 49 43 37 32 29 28 21 18 20 21 26 30 34 38 41 47 54 67 72 74 71 78 86 81 77 80 73
74 70 62 55 48 41 43 40 34 28 19 19 18 21 29 37 37 36 37 38 36 40 46 58 53 55 74 88 83 74 82 77
62 59 55 48 40 44 45 43 39 32 29 27 24 22 24 25 29 33 39 41 42 47 45 47 43 43 42 45 55 59 63 74
23 28 48 52 51 53 55 60 51 45 39 33 30 28 27 29 34 34 29 35 37 40 44 47 47 50 53 52 52 62 61 58
35 34 26 20 58 61 61 64 59 55 45 40 34 36 37 40 45 43 40 40 42 46 42 40 47 52 55 58 58 67 75 80
Wind_Direction_500mb
110 105 130 153 182 190 199 202 196 198 196 193 190 193 193 194 195 194 196 197 196 197 202 207 215 233 249 264 276 285 296 298
127 119 133 143 173 197 198 206 206 205 204 200 198 196 196 197 199 201 203 203 205 207 212 216 223 239 254 263 287 295 309 309
202 175 182 172 181 195 206 209 212 211 209 208 206 205 204 203 205 206 210 211 213 215 217 222 230 240 246 260 287 301 299 310
207 227 237 217 209 217 233 217 213 214 212 211 212 211 213 213 212 214 215 218 221 222 225 226 229 234 244 258 272 280 282 290
229 234 241 220 224 223 221 216 208 210 218 214 210 214 216 221 224 223 223 223 225 230 232 236 238 243 252 263 269 273 282 290
235 248 241 223 217 226 222 217 206 209 209 213 216 211 211 213 220 227 229 230 232 235 237 242 245 250 256 262 270 276 281 287
243 248 219 214 213 220 209 210 204 208 207 210 215 218 225 225 220 214 223 228 232 236 242 242 246 250 253 260 267 270 275 282
251 233 214 210 211 214 209 201 207 209 208 211 211 220 224 226 226 227 217 219 222 228 242 243 248 250 259 258 261 265 275 281
192 203 210 202 203 212 207 201 207 210 213 214 216 215 217 226 221 219 211 225 222 227 239 245 253 261 268 272 271 270 274 278
200 205 201 200 202 201 206 204 206 212 216 221 222 225 238 226 219 212 208 218 244 236 253 250 255 265 260 277 271 270 273 275
203 199 204 199 200 207 215 219 218 224 221 222 225 229 234 233 227 222 225 221 241 260 259 242 269 265 264 272 270 271 275 278
229 207 202 204 203 210 222 225 232 227 228 231 228 235 239 244 236 234 227 219 227 232 244 254 265 259 265 268 273 267 262 268
230 208 211 209 204 205 212 206 213 235 234 239 242 233 238 238 249 245 231 223 227 228 238 251 257 258 279 264 260 258 261 265
222 213 203 186 182 186 193 204 213 233 246 245 246 244 240 240 246 251 246 247 244 238 238 238 241 258 252 257 256 261 255 271
212 206 185 176 176 183 195 203 211 228 239 227 240 247 249 254 255 254 256 253 251 248 247 255 248 238 253 255 259 257 265 266
174 171 172 178 185 191 193 196 193 196 215 227 254 258 250 251 252 251 254 259 254 250 250 253 255 251 253 247 256 266 268 271
170 175 182 185 187 195 195 191 195 219 234 246 259 273 271 266 265 262 258 251 247 250 250 251 252 257 251 252 255 263 264 273
172 175 180 184 188 186 191 201 212 216 224 234 252 268 277 277 267 268 262 260 260 260 259 256 254 256 259 259 255 254 265 261
16 207 199 198 196 196 199 206 211 215 221 226 236 245 254 267 271 272 280 273 265 266 263 264 263 259 263 267 262 257 255 244
326 356 349 271 211 203 210 211 213 212 218 219 224 236 243 252 260 262 272 281 284 284 280 281 279 269 261 263 267 264 260 263
Wind_Speed_850mb
28 26 22 24 24 56 55 65 74 78 83 81 77 74 70 65 61 58 52 48 44 40 36 30 24 20 18 19 24 26 25 28
24 22 22 24 24 52 52 54 68 75 80 83 80 78 73 68 63 59 57 53 48 43 38 32 26 23 20 17 14 14 15 17
17 6 13 24 27 29 47 52 60 75 77 78 77 74 72 69 65 62 59 55 51 46 42 37 29 27 23 16 13 11 14 17
27 32 27 23 27 30 30 45 56 69 76 76 78 73 69 66 65 63 62 59 55 52 48 42 34 28 23 21 19 20 23 25
35 32 26 35 34 32 41 41 63 56 64 72 70 71 65 61 63 63 63 61 59 56 52 46 38 32 28 30 27 28 33 36
46 43 38 33 46 42 33 51 63 58 58 62 62 60 59 53 52 60 62 62 58 56 54 50 43 39 35 36 37 38 43 46
55 50 39 42 44 48 42 48 62 59 60 60 58 51 57 59 52 46 47 49 52 51 53 48 46 43 43 42 41 47 49 48
54 56 51 41 53 52 46 55 59 62 71 68 59 54 53 58 64 64 51 43 41 41 42 39 39 38 45 49 47 47 49 48
41 40 43 49 60 61 55 57 64 72 75 80 74 64 50 51 62 63 55 52 49 38 44 40 41 45 43 52 51 55 55 51
39 37 43 55 65 60 53 43 47 60 79 78 72 75 69 71 56 55 53 51 44 47 54 49 44 50 43 56 55 55 54 53
50 57 57 61 64 62 55 42 33 39 54 73 70 69 68 65 73 71 67 85 71 59 61 57 60 61 58 54 56 55 58 55
56 67 68 67 60 57 52 46 43 34 52 56 63 66 65 63 63 78 76 71 79 64 57 56 47 63 56 54 54 63 61 54
73 85 79 74 69 66 56 44 39 42 40 43 54 59 61 68 63 60 51 58 54 70 78 70 72 64 52 50 60 61 59 48
74 80 85 69 56 45 39 32 29 34 31 37 42 42 57 69 74 66 57 56 50 60 75 80 83 66 76 56 46 46 45 46
73 68 76 67 58 46 37 35 36 36 26 19 21 28 33 36 42 46 51 60 66 70 80 70 82 79 73 71 66 63 62 72
69 77 76 65 57 49 43 37 32 29 28 21 18 20 21 26 30 34 38 41 47 54 67 72 74 71 78 86 81 77 80 73
74 70 62 55 48 41 43 40 34 28 19 19 18 21 29 37 37 36 37 38 36 40 46 58 53 55 74 88 83 74 82 77
62 59 55 48 40 44 45 43 39 32 29 27 24 22 24 25 29 33 39 41 42 47 45 47 43 43 42 45 55 59 63 74
23 28 48 52 51 53 55 60 51 45 39 33 30 28 27 29 34 34 29 35 37 40 44 47 47 50 53 52 52 62 61 58
35 34 26 20 58 61 61 64 59 55 45 40 34 36 37 40 45 43 40 40 42 46 42 40 47 52 55 58 58 67 75 80
Wind_Direction_850mb
110 105 130 153 182 190 199 202 196 198 196 193 190 193 193 194 195 194 196 197 196 197 202 207 215 233 249 264 276 285 296 298
127 119 133 143 173 197 198 206 206 205 204 200 198 196 196 197 199 201 203 203 205 207 212 216 223 239 254 263 287 295 309 309
202 175 182 172 181 195 206 209 212 211 209 208 206 205 204 203 205 206 210 211 213 215 217 222 230 240 246 260 287 301 299 310
207 227 237 217 209 217 233 217 213 214 212 211 212 211 213 213 212 214 215 218 221 222 225 226 229 234 244 258 272 280 282 290
229 234 241 220 224 223 221 216 208 210 218 214 210 214 216 221 224 223 223 223 225 230 232 236 238 243 252 263 269 273 282 290
235 248 241 223 217 226 222 217 206 209 209 213 216 211 211 213 220 227 229 230 232 235 237 242 245 250 256 262 270 276 281 287
243 248 219 214 213 220 209 210 204 208 207 210 215 218 225 225 220 214 223 228 232 236 242 242 246 250 253 260 267 270 275 282
251 233 214 210 211 214 209 201 207 209 208 211 211 220 224 226 226 227 217 219 222 228 242 243 248 250 259 258 261 265 275 281
192 203 210 202 203 212 207 201 207 210 213 214 216 215 217 226 221 219 211 225 222 227 239 245 253 261 268 272 271 270 274 278
200 205 201 200 202 201 206 204 206 212 216 221 222 225 238 226 219 212 208 218 244 236 253 250 255 265 260 277 271 270 273 275
203 199 204 199 200 207 215 219 218 224 221 222 225 229 234 233 227 222 225 221 241 260 259 242 269 265 264 272 270 271 275 278
229 207 202 204 203 210 222 225 232 227 228 231 228 235 239 244 236 234 227 219 227 232 244 254 265 259 265 268 273 267 262 268
230 208 211 209 204 205 212 206 213 235 234 239 242 233 238 238 249 245 231 223 227 228 238 251 257 258 279 264 260 258 261 265
222 213 203 186 182 186 193 204 213 233 246 245 246 244 240 240 246 251 246 247 244 238 238 238 241 258 252 257 256 261 255 271
212 206 185 176 176 183 195 203 211 228 239 227 240 247 249 254 255 254 256 253 251 248 247 255 248 238 253 255 259 257 265 266
174 171 172 178 185 191 193 196 193 196 215 227 254 258 250 251 252 251 254 259 254 250 250 253 255 251 253 247 256 266 268 271
170 175 182 185 187 195 195 191 195 219 234 246 259 273 271 266 265 262 258 251 247 250 250 251 252 257 251 252 255 263 264 273
172 175 180 184 188 186 191 201 212 216 224 234 252 268 277 277 267 268 262 260 260 260 259 256 254 256 259 259 255 254 265 261
16 207 199 198 196 196 199 206 211 215 221 226 236 245 254 267 271 272 280 273 265 266 263 264 263 259 263 267 262 257 255 244
326 356 349 271 211 203 210 211 213 212 218 219 224 236 243 252 260 262 272 281 284 284 280 281 279 269 261 263 267 264 260 263